Regional Weather Roundup
Issued by NWS State College, PA

Home | Current Version | Previous Version | Text Only | Print | Product List | Glossary On
Versions: 1 2 3 4 5 6 7 8 9 10 11 12 13 14 15 16 17 18 19 20 21 22 23 24 25 26 27 28 29 30 31 32 33 34 35 36 37 38 39 40 41 42 43 44 45 46 47 48 49 50
000
ASUS41 KCTP 260310
RWRCTP

REGIONAL WEATHER ROUNDUP
NATIONAL WEATHER SERVICE STATE COLLEGE PA
1000 PM EST SUN JAN 25 2015

Note: "fair" indicates few or no clouds below 12,000 feet with no
significant weather and/or obstructions to visibility.

* = STATION THAT DOES NOT REPORT PRECIPITATION /E.G. RAIN...SNOW...ETC/
    THUNDER OR FOG.

PAZ002>004-007>009-013>016-020>023-029>032-260400-
WESTERN PENNSYLVANIA

CITY           SKY/WX    TMP DP  RH WIND       PRES   REMARKS
ERIE           CLOUDY    18   8  65 NE21G26   29.94S WCI   1
MEADVILLE      CLOUDY    18  13  80 NE8       29.84F WCI   8
FRANKLIN*      CLOUDY    21  12  68 NE10      29.83F WCI  10
NEW CASTLE     LGT SNOW  24  21  88 NE9       29.84F FOG     WCI  14
BEAVER COUNTY  NOT AVBL
BUTLER*        CLOUDY    28  25  86 NE9       29.82S
PITTSBURGH INT SNOW      30  29  96 NE6       29.78F VSB 1/2
PITTSBURGH     LGT SNOW  31  28  89 VRB5      29.77F VSB 3/4
INDIANA*       FOG       30  30 100 E8        29.82F VSB 1
LATROBE        LGT SNOW  32  32 100 NE7       29.79F VSB 1
WASHINGTON CO* CLOUDY    32  30  93 NE7       29.78F
$$

PAZ004>006-010>012-017>019-024>028-033>037-041-042-045-046-049>053-260400-
CENTRAL PENNSYLVANIA

CITY           SKY/WX    TMP DP  RH WIND       PRES   REMARKS
BRADFORD       CLOUDY    16   6  65 E7        29.83R WCI   6
DUBOIS         CLOUDY    25  21  85 NE10      29.80S FOG     WCI  15
CLEARFIELD     LGT SNOW  27  24  89 NE9       29.83S FOG
JOHNSTOWN      LGT SNOW  30  28  92 E7        29.73F FOG
ALTOONA        LGT SNOW  31  31 100 NE6       29.81S FOG
STATE COLLEGE  LGT SNOW  29  27  92 NE9       29.86R
WILLIAMSPORT   CLOUDY    27  12  53 N8        29.96R
SELINSGROVE    CLOUDY    32  17  54 NE9       29.94R
FT INDIANTOWN  LGT SNOW  32  32 100 NE5       29.91S FOG
CAPITAL CITY   LGT SNOW  34  31  88 E5        29.90S FOG
HARRISBURG     LGT SNOW  33  31  92 NE5       29.90R FOG
YORK           LGT RAIN  35  34  96 E5        29.88S FOG
$$

PAZ038>040-043-044-047-048-054-055-060>062-067>071-260400-
EASTERN PENNSYLVANIA

CITY           SKY/WX    TMP DP  RH WIND       PRES   REMARKS
SCRANTON       CLOUDY    22   8  55 N5        29.95R
MOUNT POCONO   CLOUDY    21   8  57 N7        29.87R WCI  12
ALLENTOWN      CLOUDY    32  14  47 NE8       29.96R
QUAKERTOWN*    NOT AVBL
READING        FLURRIES  33  23  66 NE9       29.92S
LANCASTER      LGT SNOW  33  31  92 E6        29.90S FOG
COATESVILLE    LGT SNOW  36  36 100 NE5       29.91R
POTTSTOWN      CLOUDY    33  22  63 NE10      29.93S
BLUE BELL      CLOUDY    36  25  64 CALM      29.92F
DOYLESTOWN     CLOUDY    32  19  58 N10       29.93R
WILLOW GROVE   NOT AVBL
NORTH PHILA    CLOUDY    37  21  52 NE12      29.95R
PHILADELPHIA   LGT RAIN  38  33  82 NE7       29.94R
$$


USA.gov is the U.S. government's official web portal to all federal, state and local government web resources and services.